West Mecca
DateTemperatureDew Point
08/14 - 04:15 AM86.1°73.4°
08/14 - 04:00 AM86.1°73.6°
08/14 - 03:45 AM86.3°73.4°
08/14 - 03:30 AM86.3°72.9°
08/14 - 03:15 AM85.3°73.0°
08/14 - 03:00 AM86.2°73.0°
08/14 - 02:45 AM85.9°72.8°
08/14 - 02:30 AM84.3°73.1°
08/14 - 02:15 AM83.3°73.3°
08/14 - 02:00 AM83.7°74.3°
08/14 - 01:45 AM84.5°74.0°
08/14 - 01:30 AM85.7°73.6°
08/14 - 01:15 AM87.1°72.9°
08/14 - 01:00 AM88.6°72.1°
08/14 - 12:45 AM89.6°72.1°
08/14 - 12:30 AM90.1°71.5°
08/14 - 12:15 AM89.6°71.8°
08/14 - 12:00 AM89.9°72.1°
08/13 - 11:45 PM90.0°73.2°
08/13 - 11:30 PM90.0°75.4°
08/13 - 11:15 PM89.7°77.2°
08/13 - 11:00 PM89.7°77.1°
08/13 - 10:45 PM89.8°77.1°
08/13 - 10:30 PM89.5°75.7°
08/13 - 10:15 PM87.9°75.5°
08/13 - 10:00 PM86.7°76.4°
08/13 - 09:45 PM87.2°76.4°
08/13 - 09:30 PM87.9°75.5°
08/13 - 09:15 PM89.9°76.2°
08/13 - 09:00 PM90.5°76.5°
08/13 - 08:45 PM89.2°77.2°
08/13 - 08:30 PM89.7°77.7°
08/13 - 08:15 PM90.5°77.2°
08/13 - 08:00 PM91.8°76.9°
08/13 - 07:45 PM92.1°76.2°
08/13 - 07:30 PM93.2°75.5°
08/13 - 07:15 PM93.9°77.0°
08/13 - 07:00 PM95.8°78.2°
08/13 - 06:45 PM96.9°74.7°
08/13 - 06:30 PM97.0°74.6°
08/13 - 06:15 PM97.4°74.4°
08/13 - 06:00 PM98.6°73.6°
08/13 - 05:45 PM99.1°74.0°
08/13 - 05:30 PM99.8°74.2°
08/13 - 05:15 PM99.5°73.8°
08/13 - 05:00 PM98.7°73.9°
08/13 - 04:45 PM98.8°73.7°
08/13 - 04:30 PM99.1°74.0°
08/13 - 04:15 PM99.6°73.4°
08/13 - 04:00 PM100.0°72.7°
08/13 - 03:45 PM100.6°71.0°
08/13 - 03:30 PM99.9°71.8°
08/13 - 03:15 PM99.6°72.0°
08/13 - 03:00 PM100.1°73.2°
08/13 - 02:45 PM100.2°73.8°
08/13 - 02:30 PM99.9°72.7°
08/13 - 02:15 PM100.1°72.7°
08/13 - 02:00 PM100.1°72.1°
08/13 - 01:45 PM99.7°71.5°
08/13 - 01:30 PM100.8°71.8°
08/13 - 01:15 PM100.4°71.4°
08/13 - 01:00 PM99.6°71.6°
08/13 - 12:45 PM99.4°72.4°
08/13 - 12:30 PM98.6°72.0°
08/13 - 12:15 PM98.1°72.3°
08/13 - 12:00 PM96.7°73.6°
08/13 - 11:45 AM96.6°74.7°
08/13 - 11:30 AM96.9°73.6°
08/13 - 11:15 AM95.5°75.0°
08/13 - 11:00 AM94.4°75.3°
08/13 - 10:45 AM92.5°75.0°
08/13 - 10:30 AM91.7°76.8°
08/13 - 10:15 AM91.7°76.9°
08/13 - 10:00 AM90.0°78.1°
08/13 - 09:45 AM88.0°79.3°
08/13 - 09:30 AM86.7°79.4°
08/13 - 09:15 AM85.9°79.3°
08/13 - 09:00 AM86.1°79.7°
08/13 - 08:45 AM87.0°79.7°
08/13 - 08:30 AM86.8°79.6°
08/13 - 08:15 AM85.8°79.9°
08/13 - 08:00 AM84.9°78.9°
08/13 - 07:45 AM83.6°78.4°
08/13 - 07:30 AM82.4°76.4°
08/13 - 07:15 AM82.0°75.5°
08/13 - 07:00 AM81.2°75.6°
08/13 - 06:45 AM80.6°75.6°
08/13 - 06:30 AM79.9°74.7°
08/13 - 06:15 AM78.1°75.6°
08/13 - 06:00 AM78.0°75.2°
08/13 - 05:45 AM78.1°74.8°
08/13 - 05:30 AM78.1°74.4°
08/13 - 05:15 AM77.8°74.5°
08/13 - 05:00 AM77.8°74.3°
08/13 - 04:45 AM77.8°74.0°
08/13 - 04:30 AM78.2°74.1°
08/13 - 04:15 AM77.9°74.7°
08/13 - 04:00 AM78.4°75.2°
08/13 - 03:45 AM79.4°75.5°
08/13 - 03:30 AM80.8°75.7°
08/13 - 03:15 AM80.5°76.1°
08/13 - 03:00 AM79.3°75.0°
08/13 - 02:45 AM78.9°74.7°
08/13 - 02:30 AM79.5°74.9°
08/13 - 02:15 AM79.5°74.5°
08/13 - 02:00 AM78.4°74.2°
08/13 - 01:45 AM78.6°73.6°
08/13 - 01:30 AM78.7°73.6°
08/13 - 01:15 AM79.5°74.4°
08/13 - 01:00 AM81.4°73.9°
08/13 - 12:45 AM84.5°72.4°
08/13 - 12:30 AM87.3°70.5°
08/13 - 12:15 AM89.8°70.9°
08/13 - 12:00 AM90.9°69.9°
08/12 - 11:45 PM90.1°70.1°
08/12 - 11:30 PM92.0°69.8°
08/12 - 11:15 PM96.6°68.0°
08/12 - 11:00 PM96.2°67.8°
08/12 - 10:45 PM94.8°74.2°
08/12 - 10:30 PM95.1°73.5°
08/12 - 10:15 PM94.4°75.7°
08/12 - 10:00 PM94.8°75.4°
08/12 - 09:45 PM94.8°76.3°
08/12 - 09:30 PM94.8°75.5°
08/12 - 09:15 PM95.7°73.4°
08/12 - 09:00 PM96.2°71.5°
08/12 - 08:45 PM96.1°70.3°
08/12 - 08:30 PM95.3°70.7°
08/12 - 08:15 PM96.3°70.1°
08/12 - 08:00 PM97.5°69.7°
08/12 - 07:45 PM97.9°68.3°
08/12 - 07:30 PM97.7°68.7°
08/12 - 07:15 PM98.3°69.4°
08/12 - 07:00 PM98.4°69.6°
08/12 - 06:45 PM98.9°70.1°
08/12 - 06:30 PM99.5°70.9°
08/12 - 06:15 PM99.8°71.4°
08/12 - 06:00 PM99.5°71.6°
08/12 - 05:45 PM99.5°71.7°
08/12 - 05:30 PM98.3°71.5°
08/12 - 05:15 PM97.7°71.2°
08/12 - 05:00 PM97.4°71.1°
08/12 - 04:45 PM98.0°71.6°
08/12 - 04:30 PM100.0°71.5°
08/12 - 04:15 PM102.2°71.2°
08/12 - 04:00 PM101.0°72.7°
08/12 - 03:45 PM101.6°72.7°
08/12 - 03:30 PM101.8°71.5°
08/12 - 03:15 PM101.6°71.6°
08/12 - 03:00 PM101.4°72.2°
08/12 - 02:45 PM101.1°73.1°
08/12 - 02:30 PM101.2°74.6°
08/12 - 02:15 PM100.0°73.5°
08/12 - 02:00 PM100.0°73.1°
08/12 - 01:45 PM100.6°73.8°
08/12 - 01:30 PM100.9°72.7°
08/12 - 01:15 PM102.2°72.6°
08/12 - 01:00 PM102.0°75.4°
08/12 - 12:45 PM101.0°75.8°
08/12 - 12:30 PM101.0°75.8°
08/12 - 12:15 PM101.8°75.3°
08/12 - 12:00 PM100.8°75.4°
08/12 - 11:45 AM100.5°75.4°
08/12 - 11:30 AM100.2°74.8°
08/12 - 11:15 AM100.1°74.2°
08/12 - 11:00 AM99.7°72.2°
08/12 - 10:45 AM99.6°71.5°
08/12 - 10:30 AM98.9°71.6°
08/12 - 10:15 AM97.0°73.8°
08/12 - 10:00 AM96.6°75.1°
08/12 - 09:45 AM96.5°74.5°
08/12 - 09:30 AM95.7°74.0°
08/12 - 09:15 AM94.9°74.0°
08/12 - 09:00 AM94.4°70.4°
08/12 - 08:45 AM94.5°69.3°
08/12 - 08:30 AM94.5°66.0°
08/12 - 08:15 AM94.0°67.9°
08/12 - 08:00 AM93.2°65.0°
08/12 - 07:45 AM91.3°64.0°
08/12 - 07:30 AM88.4°63.8°
08/12 - 07:15 AM84.4°65.8°
08/12 - 07:00 AM83.9°63.4°
08/12 - 06:45 AM84.5°59.3°
08/12 - 06:30 AM86.6°52.6°
08/12 - 06:15 AM88.6°44.1°
08/12 - 06:00 AM87.8°42.8°
08/12 - 05:45 AM87.5°43.3°
08/12 - 05:30 AM88.0°44.4°
08/12 - 05:15 AM88.9°41.3°
08/12 - 05:00 AM89.1°41.6°
08/12 - 04:45 AM89.0°42.3°